sat.trackr.live / text

‹ back to catalog

STARLINK-34965

NORAD 65186 · 2025-175N

PAYLOAD ACTIVE UNKNOWN

§ Identity

Operator
Country
US
Launch date
2025-08-14
Launch site
AFWTR
Launch vehicle
Mass (kg)
RCS (m²)

Purposes: comms

External: N2YO · Heavens-Above · Gunter

§ Orbital elements

Epoch: 2026-05-25T03:14:00.792096Z

Period
95.64 min
Inclination
97.4490°
Eccentricity
0.0002518
Mean motion
15.05665058 rev/d
Perigee alt
547.7 km
Apogee alt
551.2 km
Semi-major
6,927.6 km
B*
2.2363e-4
RAAN
17.6376°
Arg perigee
76.3775°
Mean anomaly
283.7732°
Rev number
4,414

§ Raw data

STARLINK-349651 65186U 25175N   26145.13473139  .00003171  00000+0  22363-3 0  99952 65186  97.4490  17.6376 0002518  76.3775 283.7732 15.05665058 44148

JSON: /api/v1/satellites/65186 · /tle

For live sub-satellite position, see the globe view (requires WebGL).

§ Visibility from observer

Set your observer location to see the next 7 days of passes ≥ 10°. The values pass through the URL so the page stays shareable.

No JS? Fill the form by hand. The geolocation button needs JavaScript.